When you browse on this site, cookies collect data to enhance your experience and personalize the content and advertising you see.
Visit our Privacy Policy to learn more. By continuing to use the site, you agree to this use of cookies and data.
  • En España
  • Lista de países
  • Para 7 días
  • Temperatura del agua
  • Mapa Satelital
  • El tiempo en el mapa
  • Informadores
  • user-avatar
    Iniciar sesión

    Tiempo cada hora Herāt

    Hoy, 18 Noviembre, Domingo

    Tiempo Temperatura Precipitaciones Viento Presión Humedad
    00:00 +12°C° 0 mm 2 mps 681 mmHg 58%
    01:00 +12°C° 0 mm 2 mps 681 mmHg 60%
    02:00 +10°C° 0 mm 2 mps 681 mmHg 61%
    03:00 +10°C° 0 mm 2 mps 681 mmHg 62%
    04:00 +10°C° 0 mm 1 mps 681 mmHg 65%
    05:00 +9°C° 0 mm 2 mps 681 mmHg 65%
    06:00 +9°C° 0 mm 2 mps 681 mmHg 66%
    07:00 +9°C° 0 mm 2 mps 681 mmHg 66%
    08:00 +10°C° 0 mm 2 mps 682 mmHg 61%
    09:00 +13°C° 0 mm 2 mps 682 mmHg 56%
    10:00 +14°C° 0 mm 2 mps 682 mmHg 50%
    11:00 +15°C° 0 mm 2 mps 682 mmHg 49%
    12:00 +16°C° 0 mm 3 mps 682 mmHg 47%
    13:00 +16°C° 0 mm 3 mps 682 mmHg 45%
    14:00 +16°C° 0 mm 3 mps 682 mmHg 47%
    15:00 +16°C° 0 mm 3 mps 681 mmHg 48%
    16:00 +14°C° 0 mm 4 mps 681 mmHg 49%
    17:00 +13°C° 0 mm 3 mps 681 mmHg 52%
    18:00 +13°C° 0 mm 3 mps 682 mmHg 56%
    19:00 +12°C° 0 mm 3 mps 682 mmHg 60%
    20:00 +12°C° 0 mm 2 mps 681 mmHg 62%
    21:00 +12°C° 0 mm 2 mps 681 mmHg 64%
    22:00 +10°C° 0 mm 2 mps 681 mmHg 66%
    23:00 +10°C° 0 mm 2 mps 681 mmHg 67%

    Mañana, 19 Noviembre, Lunes

    Tiempo Temperatura Precipitaciones Viento Presión Humedad
    00:00 +11°C° 0 mm 1 mps 681 mmHg 68%
    01:00 +10°C° 0 mm 1 mps 680 mmHg 69%
    02:00 +10°C° 0 mm 1 mps 680 mmHg 70%
    03:00 +10°C° 0 mm 1 mps 680 mmHg 70%
    04:00 +9°C° 0 mm 0 mps 680 mmHg 71%
    05:00 +9°C° 0 mm 0 mps 680 mmHg 71%
    06:00 +8°C° 0 mm 0 mps 680 mmHg 70%
    07:00 +8°C° 0 mm 0 mps 680 mmHg 70%
    08:00 +10°C° 0 mm 0 mps 681 mmHg 60%
    09:00 +13°C° 0 mm 1 mps 682 mmHg 50%
    10:00 +15°C° 0 mm 1 mps 682 mmHg 41%
    11:00 +16°C° 0 mm 2 mps 682 mmHg 37%
    12:00 +17°C° 0 mm 2 mps 682 mmHg 33%
    13:00 +18°C° 0 mm 3 mps 682 mmHg 29%
    14:00 +18°C° 0 mm 2 mps 682 mmHg 30%
    15:00 +18°C° 0 mm 2 mps 682 mmHg 31%
    16:00 +17°C° 0 mm 2 mps 682 mmHg 32%
    17:00 +16°C° 0 mm 1 mps 682 mmHg 36%
    18:00 +15°C° 0 mm 1 mps 682 mmHg 41%
    19:00 +14°C° 0 mm 1 mps 682 mmHg 45%
    20:00 +13°C° 0 mm 1 mps 683 mmHg 47%
    21:00 +13°C° 0 mm 2 mps 683 mmHg 49%
    22:00 +13°C° 0 mm 2 mps 683 mmHg 51%
    23:00 +12°C° 0 mm 2 mps 683 mmHg 53%

    Pasado mañana, 20 Noviembre, Martes

    Tiempo Temperatura Precipitaciones Viento Presión Humedad
    00:00 +12°C° 0 mm 2 mps 683 mmHg 55%
    01:00 +10°C° 0 mm 2 mps 683 mmHg 56%
    02:00 +10°C° 0 mm 2 mps 683 mmHg 56%
    03:00 +10°C° 0 mm 2 mps 683 mmHg 55%
    04:00 +10°C° 0 mm 2 mps 682 mmHg 54%
    05:00 +10°C° 0 mm 2 mps 683 mmHg 54%
    06:00 +10°C° 0 mm 1 mps 683 mmHg 54%
    07:00 +10°C° 0 mm 1 mps 683 mmHg 54%
    08:00 +12°C° 0 mm 1 mps 684 mmHg 48%
    09:00 +13°C° 0 mm 1 mps 684 mmHg 42%
    10:00 +15°C° 0 mm 1 mps 685 mmHg 37%
    11:00 +16°C° 0 mm 1 mps 684 mmHg 35%
    12:00 +16°C° 0 mm 1 mps 684 mmHg 33%
    13:00 +18°C° 0 mm 1 mps 683 mmHg 31%
    14:00 +18°C° 0 mm 1 mps 683 mmHg 32%
    15:00 +18°C° 0 mm 1 mps 683 mmHg 33%
    16:00 +18°C° 0 mm 1 mps 683 mmHg 34%
    17:00 +16°C° 0 mm 2 mps 683 mmHg 37%
    18:00 +15°C° 0 mm 2 mps 682 mmHg 41%
    19:00 +14°C° 0 mm 2 mps 682 mmHg 44%
    20:00 +14°C° 0 mm 1 mps 682 mmHg 44%
    21:00 +14°C° 0 mm 1 mps 682 mmHg 44%
    22:00 +13°C° 0 mm 1 mps 682 mmHg 44%
    23:00 +13°C° 0 mm 1 mps 681 mmHg 43%

    21 Noviembre, Miércoles

    Tiempo Temperatura Precipitaciones Viento Presión Humedad
    00:00 +13°C° 0 mm 1 mps 681 mmHg 43%
    01:00 +13°C° 0 mm 1 mps 680 mmHg 43%
    02:00 +13°C° 0 mm 1 mps 680 mmHg 43%
    03:00 +13°C° 0 mm 1 mps 680 mmHg 43%
    04:00 +12°C° 0 mm 1 mps 679 mmHg 43%
    05:00 +13°C° 0.2 mm 2 mps 679 mmHg 46%
    06:00 +12°C° 0.2 mm 3 mps 679 mmHg 48%
    07:00 +12°C° 0.2 mm 4 mps 679 mmHg 51%
    08:00 +13°C° 0.5 mm 4 mps 680 mmHg 53%
    09:00 +14°C° 0.5 mm 5 mps 680 mmHg 56%
    10:00 +14°C° 0.5 mm 6 mps 680 mmHg 58%
    11:00 +15°C° 0.1 mm 6 mps 679 mmHg 55%
    12:00 +16°C° 0.1 mm 6 mps 679 mmHg 52%
    13:00 +17°C° 0.1 mm 6 mps 678 mmHg 49%
    14:00 +17°C° 0.1 mm 6 mps 678 mmHg 52%
    15:00 +16°C° 0.1 mm 5 mps 678 mmHg 54%
    16:00 +16°C° 0.1 mm 5 mps 678 mmHg 56%
    17:00 +15°C° 0.3 mm 4 mps 678 mmHg 60%
    18:00 +14°C° 0.3 mm 3 mps 678 mmHg 64%
    19:00 +13°C° 0.3 mm 3 mps 679 mmHg 68%
    20:00 +14°C° 0.5 mm 2 mps 679 mmHg 71%
    21:00 +14°C° 0.5 mm 2 mps 679 mmHg 75%
    22:00 +13°C° 0.5 mm 1 mps 679 mmHg 79%
    23:00 +13°C° 0.4 mm 1 mps 679 mmHg 80%

    22 Noviembre, Jueves

    Tiempo Temperatura Precipitaciones Viento Presión Humedad
    00:00 +13°C° 0.4 mm 1 mps 679 mmHg 81%
    01:00 +12°C° 0.4 mm 1 mps 679 mmHg 82%
    02:00 +12°C° 0.1 mm 1 mps 679 mmHg 83%
    03:00 +12°C° 0.1 mm 1 mps 679 mmHg 83%
    04:00 +11°C° 0.1 mm 1 mps 679 mmHg 84%
    05:00 +11°C° 0 mm 1 mps 680 mmHg 82%
    06:00 +10°C° 0 mm 2 mps 680 mmHg 81%
    07:00 +10°C° 0 mm 2 mps 680 mmHg 80%
    08:00 +12°C° 0 mm 2 mps 681 mmHg 69%
    09:00 +13°C° 0 mm 3 mps 681 mmHg 59%
    10:00 +14°C° 0 mm 3 mps 682 mmHg 49%
    11:00 +16°C° 0 mm 3 mps 681 mmHg 46%
    12:00 +17°C° 0 mm 3 mps 681 mmHg 43%
    13:00 +17°C° 0 mm 3 mps 681 mmHg 39%
    14:00 +17°C° 0 mm 3 mps 681 mmHg 39%
    15:00 +17°C° 0 mm 3 mps 681 mmHg 38%
    16:00 +17°C° 0 mm 3 mps 681 mmHg 38%
    17:00 +17°C° 0 mm 3 mps 681 mmHg 40%
    18:00 +16°C° 0 mm 3 mps 681 mmHg 43%
    19:00 +14°C° 0 mm 3 mps 681 mmHg 45%
    20:00 +14°C° 0 mm 3 mps 681 mmHg 46%
    21:00 +13°C° 0 mm 3 mps 681 mmHg 47%
    22:00 +13°C° 0 mm 3 mps 681 mmHg 47%
    23:00 +13°C° 0 mm 4 mps 681 mmHg 48%

    23 Noviembre, Viernes

    Tiempo Temperatura Precipitaciones Viento Presión Humedad
    00:00 +13°C° 0 mm 4 mps 681 mmHg 48%
    01:00 +12°C° 0 mm 4 mps 681 mmHg 49%
    02:00 +12°C° 0 mm 4 mps 681 mmHg 48%
    03:00 +12°C° 0 mm 4 mps 680 mmHg 48%
    04:00 +12°C° 0 mm 4 mps 680 mmHg 47%
    05:00 +12°C° 0 mm 4 mps 681 mmHg 46%
    06:00 +12°C° 0 mm 4 mps 681 mmHg 44%
    07:00 +12°C° 0 mm 5 mps 681 mmHg 43%
    08:00 +14°C° 0 mm 6 mps 682 mmHg 38%
    09:00 +16°C° 0 mm 7 mps 682 mmHg 33%
    10:00 +18°C° 0 mm 8 mps 683 mmHg 29%
    11:00 +20°C° 0 mm 8 mps 682 mmHg 29%
    12:00 +21°C° 0 mm 9 mps 682 mmHg 30%
    13:00 +21°C° 0 mm 9 mps 681 mmHg 31%
    14:00 +21°C° 0 mm 8 mps 681 mmHg 32%
    15:00 +20°C° 0 mm 7 mps 681 mmHg 33%
    16:00 +20°C° 0 mm 6 mps 681 mmHg 34%
    17:00 +19°C° 0 mm 5 mps 681 mmHg 37%
    18:00 +17°C° 0 mm 5 mps 681 mmHg 39%
    19:00 +17°C° 0 mm 4 mps 681 mmHg 42%
    20:00 +17°C° 0 mm 4 mps 681 mmHg 42%
    21:00 +17°C° 0 mm 4 mps 681 mmHg 42%
    22:00 +15°C° 0 mm 4 mps 681 mmHg 42%
    23:00 +15°C° 0 mm 4 mps 681 mmHg 42%
    Mostrar más